FW5642 Weather Reports


Display with metric or nautical units.
time (UTC)temp
F
wind
direction
speed
MPH
gust
MPH
rain 1hr
in
rain 24hr
in
rain mn
in
humidity
%
barometer
mb
20260507163035 64 261 2.0 9.0 0.00 0.00 0.00 58 1019.6
20260507161539 63 286 4.0 10.0 0.00 0.00 0.00 59 1019.9
20260507160037 61 279 4.0 12.0 0.00 0.00 0.00 61 1020.1
20260507154536 61 286 6.0 12.0 0.00 0.00 0.00 63 1020.3
20260507153033 59 276 4.0 11.0 0.00 0.00 0.00 68 1020.5
20260507151642 57 269 4.0 11.0 0.00 0.00 0.00 72 1020.5
20260507150050 55 285 3.0 8.0 0.00 0.00 0.00 74 1020.5
20260507143033 54 298 6.0 16.0 0.00 0.00 0.00 75 1020.4
20260507141530 53 308 5.0 14.0 0.00 0.00 0.00 76 1020.4
20260507140031 52 331 6.0 11.0 0.00 0.00 0.00 77 1020.3
20260507134608 53 355 5.0 11.0 0.00 0.00 0.00 77 1020.3
20260507130036 52 65 2.0 8.0 0.00 0.00 0.00 77 1020.0
20260507124532 53 40 2.0 9.0 0.00 0.00 0.00 77 1020.0
20260507123034 53 25 4.0 10.0 0.00 0.00 0.00 77 1020.0
20260507121647 52 332 4.0 9.0 0.00 0.00 0.00 77 1019.9
20260507120045 53 325 3.0 9.0 0.00 0.00 0.00 77 1019.8
20260507114539 53 335 3.0 7.0 0.00 0.00 0.00 77 1019.8
20260507113034 54 357 4.0 9.0 0.00 0.00 0.00 77 1019.6
20260507111536 54 339 5.0 10.0 0.00 0.00 0.00 76 1019.5
20260507110037 54 339 3.0 9.0 0.00 0.00 0.00 76 1019.3
20260507104604 54 357 4.0 7.0 0.00 0.00 0.00 75 1019.3
20260507103149 54 4 4.0 9.0 0.00 0.00 0.00 75 1019.2
20260507101648 55 41 3.0 8.0 0.00 0.00 0.00 74 1019.2
20260507100044 55 59 2.0 7.0 0.00 0.00 0.00 73 1019.1
20260507094531 56 68 0.0 7.0 0.00 0.00 0.00 72 1019.1
20260507093037 56 13 1.0 7.0 0.00 0.00 0.00 71 1019.1
20260507090033 58 293 3.0 9.0 0.00 0.00 0.00 70 1019.1
20260507084606 58 276 6.0 15.0 0.00 0.00 0.00 70 1019.0
20260507083038 58 275 4.0 12.0 0.00 0.00 0.00 69 1019.0
20260507074536 59 273 2.0 10.0 0.00 0.00 0.00 70 1018.9
20260507073106 59 277 5.0 16.0 0.00 0.00 0.00 70 1018.7
20260507071533 59 286 6.0 14.0 0.00 0.00 0.00 70 1018.7
20260507070034 60 288 9.0 21.0 0.00 0.00 0.00 69 1018.8
20260507064607 60 289 9.0 16.0 0.00 0.00 0.00 69 1018.9
20260507063148 60 277 8.0 18.0 0.00 0.00 0.00 69 1019.0
20260507061535 60 270 7.0 15.0 0.00 0.00 0.00 69 1019.1
20260507060037 60 272 6.0 16.0 0.00 0.00 0.00 67 1019.3
20260507054535 61 276 6.0 17.0 0.00 0.00 0.00 66 1019.4
20260507053107 62 281 7.0 17.0 0.00 0.00 0.00 64 1019.5
20260507051535 62 289 7.0 14.0 0.00 0.00 0.00 61 1019.5
20260507050035 63 291 8.0 15.0 0.00 0.00 0.00 58 1019.5
20260507043108 64 290 6.0 19.0 0.00 0.00 0.00 53 1019.3
20260507041642 64 269 4.0 11.0 0.00 0.00 0.00 52 1019.1
20260507040045 65 257 5.0 14.0 0.00 0.00 0.00 51 1018.9
20260507034537 66 255 6.0 14.0 0.00 0.00 0.00 50 1018.8
20260507033030 66 258 8.0 19.0 0.00 0.00 0.00 50 1018.5
20260507031532 67 254 9.0 21.0 0.00 0.00 0.00 49 1018.4
20260507030038 67 261 8.0 19.0 0.00 0.00 0.00 49 1018.4
20260507024610 68 263 7.0 16.0 0.00 0.00 0.00 49 1018.3
20260507023109 67 265 8.0 15.0 0.00 0.00 0.00 49 1018.3
20260507020031 68 265 10.0 21.0 0.00 0.00 0.00 49 1018.1
20260507014534 68 267 11.0 22.0 0.00 0.00 0.00 48 1018.0
20260507013031 69 266 10.0 18.0 0.00 0.00 0.00 47 1017.9
20260507004535 70 273 11.0 24.0 0.00 0.00 0.00 45 1017.9
20260507003032 70 267 11.0 23.0 0.00 0.00 0.00 44 1017.9
20260507001533 70 264 10.0 24.0 0.00 0.00 0.00 43 1017.7
20260507000033 71 266 10.0 21.0 0.00 0.00 0.00 43 1017.5
20260506234534 71 271 10.0 29.0 0.00 0.00 0.00 43 1017.4
20260506231530 74 282 11.0 23.0 0.00 0.00 0.00 43 1017.3
20260506230107 74 289 14.0 24.0 0.00 0.00 0.00 43 1017.4
20260506223110 74 282 13.0 25.0 0.00 0.00 0.00 43 1017.5
20260506221535 74 287 14.0 31.0 0.00 0.00 0.00 43 1017.5
20260506220031 75 289 10.0 21.0 0.00 0.00 0.00 44 1017.7
20260506214605 76 289 10.0 21.0 0.00 0.00 0.00 44 1017.7
20260506213029 76 294 8.0 20.0 0.00 0.00 0.00 45 1017.8
20260506211534 74 294 8.0 20.0 0.00 0.00 0.00 47 1017.9
20260506204533 73 293 10.0 20.0 0.00 0.00 0.00 49 1018.2
20260506203032 73 291 11.0 20.0 0.00 0.00 0.00 50 1018.1
20260506201606 73 294 9.0 19.0 0.00 0.00 0.00 51 1018.2
20260506194608 73 279 8.0 16.0 0.00 0.00 0.00 52 1018.2
20260506193029 73 274 10.0 20.0 0.00 0.00 0.00 52 1018.1
20260506191536 72 267 12.0 28.0 0.00 0.00 0.00 52 1018.0
20260506184534 72 284 10.0 21.0 0.00 0.00 0.00 53 1018.0
20260506181534 70 296 9.0 19.0 0.00 0.00 0.00 56 1018.4
20260506180029 71 304 10.0 23.0 0.00 0.00 0.00 55 1018.4
20260506174609 71 307 9.0 19.0 0.00 0.00 0.00 56 1018.4
20260506173143 70 315 7.0 16.0 0.00 0.00 0.00 59 1018.3
20260506171531 68 301 6.0 14.0 0.00 0.00 0.00 61 1018.5
20260506170036 67 285 5.0 12.0 0.00 0.00 0.00 62 1018.4
20260506164642 67 284 6.0 16.0 0.00 0.00 0.00 60 1018.7